• In Belarus
  • List of Countries
  • For 7 days
  • Water Temperature
  • Satellite Maps
  • Weather Map
  • Weather Widgets
  • user-avatar
    Login

    Hourly Weather Batina

    Today, 19 May, Sunday

    Time Temperature Precipitation Wind Pressure Humidity
    00:00 +13°C° 0 mm 2 mps 665 mmHg 58%
    01:00 +13°C° 0 mm 2 mps 665 mmHg 62%
    02:00 +12°C° 0 mm 1 mps 665 mmHg 65%
    03:00 +11°C° 0 mm 1 mps 665 mmHg 68%
    04:00 +12°C° 0 mm 1 mps 665 mmHg 67%
    05:00 +12°C° 0 mm 1 mps 665 mmHg 65%
    06:00 +13°C° 0 mm 1 mps 665 mmHg 65%
    07:00 +14°C° 0 mm 1 mps 666 mmHg 58%
    08:00 +15°C° 0 mm 2 mps 666 mmHg 52%
    09:00 +16°C° 0 mm 2 mps 667 mmHg 45%
    10:00 +17°C° 0 mm 3 mps 667 mmHg 39%
    11:00 +18°C° 0 mm 4 mps 667 mmHg 33%
    12:00 +19°C° 0 mm 4 mps 667 mmHg 28%
    13:00 +18°C° 0.1 mm 4 mps 667 mmHg 30%
    14:00 +16°C° 0.1 mm 5 mps 667 mmHg 32%
    15:00 +15°C° 0.1 mm 5 mps 667 mmHg 34%
    16:00 +15°C° 0 mm 4 mps 667 mmHg 36%
    17:00 +15°C° 0 mm 4 mps 667 mmHg 37%
    18:00 +15°C° 0 mm 4 mps 667 mmHg 39%
    19:00 +14°C° 0 mm 3 mps 667 mmHg 43%
    20:00 +14°C° 0 mm 2 mps 667 mmHg 48%
    21:00 +13°C° 0 mm 1 mps 667 mmHg 52%
    22:00 +12°C° 0 mm 1 mps 667 mmHg 56%
    23:00 +11°C° 0 mm 1 mps 667 mmHg 60%

    Tomorrow, 20 May, Monday

    Time Temperature Precipitation Wind Pressure Humidity
    00:00 +11°C° 0 mm 1 mps 666 mmHg 64%
    01:00 +11°C° 0 mm 1 mps 666 mmHg 67%
    02:00 +10°C° 0 mm 1 mps 666 mmHg 70%
    03:00 +10°C° 0 mm 1 mps 666 mmHg 73%
    04:00 +10°C° 0 mm 1 mps 666 mmHg 71%
    05:00 +10°C° 0 mm 2 mps 667 mmHg 69%
    06:00 +12°C° 0 mm 2 mps 667 mmHg 68%
    07:00 +13°C° 0 mm 1 mps 668 mmHg 59%
    08:00 +15°C° 0 mm 1 mps 669 mmHg 51%
    09:00 +15°C° 0 mm 0 mps 669 mmHg 42%
    10:00 +18°C° 0 mm 1 mps 670 mmHg 36%
    11:00 +19°C° 0 mm 2 mps 670 mmHg 30%
    12:00 +20°C° 0 mm 3 mps 670 mmHg 25%
    13:00 +21°C° 0 mm 3 mps 670 mmHg 22%
    14:00 +21°C° 0 mm 3 mps 670 mmHg 20%
    15:00 +22°C° 0 mm 4 mps 670 mmHg 18%
    16:00 +21°C° 0 mm 4 mps 669 mmHg 19%
    17:00 +20°C° 0 mm 4 mps 669 mmHg 20%
    18:00 +20°C° 0 mm 3 mps 669 mmHg 21%
    19:00 +18°C° 0 mm 3 mps 669 mmHg 31%
    20:00 +17°C° 0 mm 3 mps 670 mmHg 41%
    21:00 +14°C° 0 mm 3 mps 670 mmHg 50%
    22:00 +15°C° 0 mm 2 mps 670 mmHg 51%
    23:00 +14°C° 0 mm 2 mps 670 mmHg 52%

    Day after tomorrow, 21 May, Tuesday

    Time Temperature Precipitation Wind Pressure Humidity
    00:00 +14°C° 0 mm 1 mps 669 mmHg 53%
    01:00 +14°C° 0 mm 1 mps 669 mmHg 50%
    02:00 +14°C° 0 mm 1 mps 669 mmHg 47%
    03:00 +14°C° 0 mm 0 mps 669 mmHg 45%
    04:00 +14°C° 0 mm 0 mps 669 mmHg 42%
    05:00 +16°C° 0 mm 1 mps 670 mmHg 39%
    06:00 +18°C° 0 mm 1 mps 670 mmHg 36%
    07:00 +19°C° 0 mm 1 mps 670 mmHg 33%
    08:00 +19°C° 0 mm 2 mps 671 mmHg 30%
    09:00 +21°C° 0 mm 2 mps 671 mmHg 28%
    10:00 +23°C° 0 mm 2 mps 671 mmHg 27%
    11:00 +22°C° 0 mm 3 mps 672 mmHg 27%
    12:00 +24°C° 0 mm 3 mps 672 mmHg 26%
    13:00 +24°C° 0 mm 3 mps 671 mmHg 28%
    14:00 +24°C° 0 mm 3 mps 671 mmHg 30%
    15:00 +22°C° 0 mm 3 mps 671 mmHg 32%
    16:00 +21°C° 0 mm 3 mps 671 mmHg 35%
    17:00 +21°C° 0 mm 3 mps 671 mmHg 39%
    18:00 +20°C° 0 mm 3 mps 671 mmHg 43%
    19:00 +18°C° 0.5 mm 3 mps 671 mmHg 54%
    20:00 +16°C° 0.5 mm 3 mps 671 mmHg 64%
    21:00 +14°C° 0.5 mm 3 mps 671 mmHg 74%
    22:00 +13°C° 0.7 mm 3 mps 671 mmHg 77%
    23:00 +13°C° 0.7 mm 3 mps 670 mmHg 80%

    22 May, Wednesday

    Time Temperature Precipitation Wind Pressure Humidity
    00:00 +12°C° 0.7 mm 3 mps 670 mmHg 83%
    01:00 +12°C° 0.2 mm 3 mps 670 mmHg 83%
    02:00 +13°C° 0.2 mm 2 mps 670 mmHg 84%
    03:00 +13°C° 0.2 mm 2 mps 669 mmHg 84%
    04:00 +13°C° 0 mm 2 mps 670 mmHg 80%
    05:00 +14°C° 0 mm 1 mps 670 mmHg 76%
    06:00 +14°C° 0 mm 1 mps 670 mmHg 73%
    07:00 +16°C° 0 mm 1 mps 671 mmHg 65%
    08:00 +18°C° 0 mm 1 mps 671 mmHg 58%
    09:00 +20°C° 0 mm 1 mps 672 mmHg 51%
    10:00 +20°C° 0.3 mm 1 mps 672 mmHg 48%
    11:00 +20°C° 0.3 mm 2 mps 672 mmHg 45%
    12:00 +21°C° 0.3 mm 2 mps 672 mmHg 41%
    13:00 +21°C° 0.2 mm 2 mps 671 mmHg 41%
    14:00 +21°C° 0.2 mm 3 mps 671 mmHg 41%
    15:00 +21°C° 0.2 mm 4 mps 671 mmHg 41%
    16:00 +20°C° 0.4 mm 4 mps 671 mmHg 46%
    17:00 +19°C° 0.4 mm 4 mps 671 mmHg 51%
    18:00 +18°C° 0.4 mm 3 mps 671 mmHg 56%
    19:00 +17°C° 0.1 mm 3 mps 671 mmHg 61%
    20:00 +16°C° 0.1 mm 3 mps 671 mmHg 66%
    21:00 +15°C° 0.1 mm 2 mps 672 mmHg 71%
    22:00 +15°C° 0 mm 2 mps 672 mmHg 74%
    23:00 +14°C° 0 mm 2 mps 671 mmHg 78%

    23 May, Thursday

    Time Temperature Precipitation Wind Pressure Humidity
    00:00 +14°C° 0 mm 2 mps 671 mmHg 81%
    01:00 +13°C° 0 mm 2 mps 671 mmHg 84%
    02:00 +13°C° 0 mm 1 mps 671 mmHg 87%
    03:00 +12°C° 0 mm 1 mps 671 mmHg 89%
    04:00 +13°C° 0 mm 1 mps 671 mmHg 87%
    05:00 +13°C° 0 mm 1 mps 671 mmHg 85%
    06:00 +13°C° 0 mm 1 mps 672 mmHg 83%
    07:00 +15°C° 0 mm 1 mps 672 mmHg 71%
    08:00 +16°C° 0 mm 1 mps 673 mmHg 60%
    09:00 +18°C° 0 mm 2 mps 673 mmHg 49%
    10:00 +19°C° 0 mm 2 mps 673 mmHg 42%
    11:00 +20°C° 0 mm 2 mps 673 mmHg 36%
    12:00 +21°C° 0 mm 3 mps 674 mmHg 29%
    13:00 +21°C° 0 mm 3 mps 673 mmHg 27%
    14:00 +22°C° 0 mm 4 mps 673 mmHg 26%
    15:00 +22°C° 0 mm 4 mps 673 mmHg 24%
    16:00 +22°C° 0 mm 4 mps 673 mmHg 27%
    17:00 +21°C° 0 mm 4 mps 673 mmHg 29%
    18:00 +20°C° 0 mm 5 mps 673 mmHg 32%
    19:00 +19°C° 0 mm 4 mps 673 mmHg 37%
    20:00 +18°C° 0 mm 3 mps 673 mmHg 43%
    21:00 +17°C° 0 mm 3 mps 673 mmHg 48%
    22:00 +16°C° 0 mm 2 mps 673 mmHg 51%
    23:00 +15°C° 0 mm 2 mps 672 mmHg 54%

    24 May, Friday

    Time Temperature Precipitation Wind Pressure Humidity
    00:00 +15°C° 0 mm 1 mps 672 mmHg 56%
    01:00 +14°C° 0 mm 1 mps 672 mmHg 57%
    02:00 +14°C° 0 mm 1 mps 672 mmHg 58%
    03:00 +13°C° 0 mm 0 mps 671 mmHg 59%
    04:00 +14°C° 0 mm 0 mps 672 mmHg 54%
    05:00 +16°C° 0 mm 1 mps 672 mmHg 49%
    06:00 +18°C° 0 mm 1 mps 673 mmHg 44%
    07:00 +19°C° 0 mm 2 mps 673 mmHg 39%
    08:00 +20°C° 0 mm 2 mps 674 mmHg 34%
    09:00 +22°C° 0 mm 3 mps 674 mmHg 29%
    10:00 +23°C° 0 mm 4 mps 674 mmHg 27%
    11:00 +23°C° 0 mm 4 mps 674 mmHg 24%
    12:00 +25°C° 0 mm 4 mps 674 mmHg 22%
    13:00 +26°C° 0 mm 4 mps 674 mmHg 21%
    14:00 +26°C° 0 mm 4 mps 674 mmHg 21%
    15:00 +26°C° 0 mm 4 mps 673 mmHg 21%
    16:00 +26°C° 0 mm 4 mps 673 mmHg 23%
    17:00 +25°C° 0 mm 4 mps 673 mmHg 24%
    18:00 +25°C° 0 mm 4 mps 673 mmHg 26%
    19:00 +22°C° 0 mm 3 mps 673 mmHg 32%
    20:00 +21°C° 0 mm 2 mps 673 mmHg 37%
    21:00 +19°C° 0 mm 2 mps 673 mmHg 42%
    22:00 +19°C° 0 mm 1 mps 672 mmHg 46%
    23:00 +19°C° 0 mm 1 mps 672 mmHg 49%
    Show more